Regional Weather Roundup
Issued by NWS

Home | Current Version | Previous Version | Graphics & Text | Print | Product List | Glossary On
Versions: 1 2 3 4 5 6 7 8 9 10 11 12 13 14 15 16 17 18 19 20 21 22 23 24 25 26 27 28 29 30 31 32 33 34 35 36 37 38 39 40 41 42 43 44 45 46 47 48 49 50
996
ASUS43 KLMK 101702
RWRKY
KENTUCKY REGIONAL WEATHER ROUNDUP
NATIONAL WEATHER SERVICE LOUISVILLE KY
1200 PM EST SUN DEC 10 2017

NOTE "FAIR" INDICATES FEW OR NO CLOUDS BELOW 12,000 FEET
WITH NO SIGNIFICANT WEATHER AND/OR OBSTRUCTIONS TO VISIBILITY.

KYZ001>023-026-027-061>063-070>075-101800-
WESTERN AND SOUTH CENTRAL KENTUCKY

CITY           SKY/WX    TMP DP  RH WIND       PRES   REMARKS
PADUCAH        SUNNY     41  21  44 SW15G24   30.17F
HENDERSON      SUNNY     38  23  55 SW18      30.13F WCI  28
OWENSBORO      SUNNY     38  22  52 SW17      30.16F WCI  28
HOPKINSVILLE   SUNNY     40  20  44 SW20      30.21F WCI  31
BOWLING GREEN  SUNNY     38  21  50 SW15G24   30.22F WCI  29
GLASGOW        NOT AVBL
$$

KYZ024-025-028>034-038-045-046-053-101800-
NORTH CENTRAL KENTUCKY

CITY           SKY/WX    TMP DP  RH WIND       PRES   REMARKS
LOUISVILLE/SDF CLOUDY    36  19  50 SW17G26   30.15F WCI  26
LOUISVILLE/LOU CLOUDY    35  20  54 SW18      30.16F WCI  24
FORT KNOX      MOSUNNY   35  19  52 SW17G24   30.14F WCI  25
$$

KYZ035>037-039>044-047>052-055>060-089>105-101800-
NORTHEAST KENTUCKY

CITY           SKY/WX    TMP DP  RH WIND       PRES   REMARKS
LEXINGTON      CLOUDY    32  18  56 SW17G25   30.14F WCI  21
COVINGTON      CLOUDY    30  20  66 SW12G21   30.08F WCI  20
FRANKFORT      CLOUDY    33  18  53 SW12G22   30.14F WCI  24
$$

KYZ054-064>069-076>088-106>120-101800-
SOUTHEAST KENTUCKY

CITY           SKY/WX    TMP DP  RH WIND       PRES   REMARKS
JACKSON        SUNNY     33  20  58 MISG      30.15F
LONDON         MOSUNNY   32  18  56 SW12      30.18F WCI  23
SOMERSET       MOSUNNY   32  18  55 W13G18    30.22F WCI  22
MIDDLESBORO    SUNNY     36  18  47 SW5       30.21F WCI  32
MONTICELLO     NOT AVBL
$$





USA.gov is the U.S. government's official web portal to all federal, state and local government web resources and services.